Regional Weather Roundup
Issued by NWS

Home | Current Version | Previous Version | Text Only | Print | Product List | Glossary Off
Versions: 1 2 3 4 5 6 7 8 9 10 11 12 13 14 15 16 17 18 19 20 21 22 23 24 25 26 27 28 29 30 31 32 33 34 35 36 37 38 39 40 41 42 43 44 45 46 47 48 49 50

392
ASUS43 KBIS 080902
RWRND

NORTH DAKOTA REGIONAL WEATHER ROUNDUP
NATIONAL WEATHER SERVICE BISMARCK ND
300 AM CST MON FEB 08 2016

NOTE: "FAIR" INDICATES FEW OR NO CLOUDS BELOW 12,000 FEET WITH NO
SIGNIFICANT WEATHER AND/OR OBSTRUCTIONS TO VISIBILITY.


NDZ001>003-009>011-017-081000-
NORTHWEST NORTH DAKOTA

CITY           SKY/WX    TMP DP  RH WIND       PRES   REMARKS
WILLISTON      CLEAR     26  17  68 NW21G29   30.32R WCI  12
MINOT          CLEAR     26  16  65 W21       30.20R WCI  12
MINOT AFB      CLEAR     24  19  82 NW23      30.19R WCI   8
$$

NDZ018>021-031>035-040>046-081000-
SOUTHWEST NORTH DAKOTA

CITY           SKY/WX    TMP DP  RH WIND       PRES   REMARKS
BISMARCK       CLEAR     28  18  66 NW22G33   30.19F WCI  14
DICKINSON      CLEAR     18  13  80 W13       30.25S WCI   5
GARRISON         N/A     22  17  81 NW22      30.20S WCI   6
HETTINGER ARPT CLEAR     21  14  74 NW14      30.26F WCI   8
$$

NDZ004>008-012>016-024-026-027-054-081000-
NORTHEAST NORTH DAKOTA

CITY           SKY/WX    TMP DP  RH WIND       PRES   REMARKS
GRAND FORKS    LGT SNOW  14   8  77 N37G47    30.09R BLWGSNOWWCI  -9
GRND FRKS AFB  LGT SNOW  13   9  83 N25G36    30.10R WCI  -6
DEVILS LAKE    FLURRIES  19  13  77 N17       30.10S WCI   4
$$

NDZ022-023-025-028>030-036>039-047>053-081000-
SOUTHEAST NORTH DAKOTA

CITY           SKY/WX    TMP DP  RH WIND       PRES   REMARKS
FARGO          SNOW      15  11  83 N31G41    30.06R VSB 1/2 WCI  -6
JAMESTOWN      CLOUDY    20  13  74 N26       30.08R WCI   2
$$





USA.gov is the U.S. government's official web portal to all federal, state and local government web resources and services.